Location: Brantley
(31.5822°N, 86.2569°W)
Time: 06:43:45
(UTC+00:00)

Courier 1B Rocket - Pass Details

Date: 24 February 2026
Orbit: 920 x 1201 km, 28.2° (Epoch: 9 March)

Event Time Altitude Azimuth Distance (km) Brightness Sun altitude
Rises 05:18:30 0° 259° (WSW) 3,612 - -66.0°
Reaches altitude 10° 05:23:33 10° 224° (SW) 2,725 - -66.4°
Maximum altitude 05:25:12 11° 210° (SSW) 2,676 - -66.6°
Drops below altitude 10° 05:26:53 10° 195° (SSW) 2,771 - -66.7°
Sets 05:32:14 0° 161° (SSE) 3,803 - -67.1°
